When you browse on this site, cookies collect data to enhance your experience and personalize the content and advertising you see.
Visit our Privacy Policy to learn more. By continuing to use the site, you agree to this use of cookies and data.
  • en France
  • Liste des pays
  • À 7 jours
  • Température de l'eau
  • Carte météo
  • Widgets météo
  • user-avatar
    Se connecter

    Météo par heure à Porto Alegre

    Ce jour, 7 Décembre, Samedi

    Heure Température Précipitation Vent Pression Humidité
    00:00 +21°C° 0 mm 2 m/s 756 mmHg 64%
    01:00 +21°C° 0 mm 2 m/s 756 mmHg 65%
    02:00 +20°C° 0 mm 2 m/s 756 mmHg 67%
    03:00 +21°C° 0 mm 1 m/s 756 mmHg 68%
    04:00 +20°C° 0 mm 1 m/s 757 mmHg 68%
    05:00 +20°C° 0 mm 1 m/s 757 mmHg 67%
    06:00 +18°C° 0 mm 0 m/s 758 mmHg 67%
    07:00 +20°C° 0 mm 0 m/s 758 mmHg 60%
    08:00 +22°C° 0 mm 0 m/s 758 mmHg 53%
    09:00 +24°C° 0 mm 0 m/s 758 mmHg 46%
    10:00 +27°C° 0 mm 1 m/s 758 mmHg 42%
    11:00 +28°C° 0 mm 1 m/s 758 mmHg 37%
    12:00 +30°C° 0 mm 2 m/s 757 mmHg 32%
    13:00 +30°C° 0 mm 2 m/s 757 mmHg 32%
    14:00 +30°C° 0 mm 2 m/s 757 mmHg 32%
    15:00 +30°C° 0 mm 3 m/s 757 mmHg 32%
    16:00 +29°C° 0 mm 3 m/s 757 mmHg 37%
    17:00 +28°C° 0 mm 4 m/s 756 mmHg 41%
    18:00 +26°C° 0 mm 4 m/s 756 mmHg 46%
    19:00 +25°C° 0 mm 4 m/s 757 mmHg 53%
    20:00 +22°C° 0 mm 4 m/s 757 mmHg 60%
    21:00 +21°C° 0 mm 4 m/s 757 mmHg 66%
    22:00 +20°C° 0 mm 3 m/s 757 mmHg 68%
    23:00 +20°C° 0 mm 3 m/s 758 mmHg 70%

    Demain, 8 Décembre, Dimanche

    Heure Température Précipitation Vent Pression Humidité
    00:00 +19°C° 0 mm 3 m/s 758 mmHg 72%
    01:00 +19°C° 0 mm 3 m/s 758 mmHg 74%
    02:00 +19°C° 0 mm 2 m/s 758 mmHg 76%
    03:00 +18°C° 0 mm 2 m/s 758 mmHg 78%
    04:00 +19°C° 0 mm 1 m/s 758 mmHg 78%
    05:00 +19°C° 0 mm 1 m/s 758 mmHg 78%
    06:00 +17°C° 0 mm 0 m/s 759 mmHg 78%
    07:00 +20°C° 0 mm 0 m/s 758 mmHg 68%
    08:00 +24°C° 0 mm 1 m/s 758 mmHg 58%
    09:00 +26°C° 0 mm 1 m/s 758 mmHg 48%
    10:00 +28°C° 0 mm 1 m/s 758 mmHg 42%
    11:00 +30°C° 0 mm 1 m/s 757 mmHg 37%
    12:00 +32°C° 0 mm 1 m/s 757 mmHg 32%
    13:00 +32°C° 0 mm 1 m/s 756 mmHg 30%
    14:00 +32°C° 0 mm 2 m/s 756 mmHg 28%
    15:00 +34°C° 0 mm 2 m/s 755 mmHg 26%
    16:00 +31°C° 0 mm 3 m/s 755 mmHg 32%
    17:00 +30°C° 0 mm 3 m/s 755 mmHg 38%
    18:00 +29°C° 0 mm 4 m/s 755 mmHg 43%
    19:00 +27°C° 0 mm 3 m/s 755 mmHg 49%
    20:00 +26°C° 0 mm 3 m/s 755 mmHg 55%
    21:00 +24°C° 0 mm 3 m/s 755 mmHg 61%
    22:00 +24°C° 0 mm 2 m/s 756 mmHg 64%
    23:00 +23°C° 0 mm 1 m/s 756 mmHg 67%

    Après-demain, 9 Décembre, Lundi

    Heure Température Précipitation Vent Pression Humidité
    00:00 +21°C° 0 mm 0 m/s 756 mmHg 71%
    01:00 +20°C° 0 mm 0 m/s 756 mmHg 72%
    02:00 +20°C° 0 mm 0 m/s 755 mmHg 72%
    03:00 +20°C° 0 mm 0 m/s 755 mmHg 73%
    04:00 +22°C° 0 mm 1 m/s 756 mmHg 72%
    05:00 +22°C° 0 mm 1 m/s 756 mmHg 72%
    06:00 +22°C° 0 mm 1 m/s 756 mmHg 71%
    07:00 +24°C° 0 mm 1 m/s 756 mmHg 62%
    08:00 +27°C° 0 mm 1 m/s 756 mmHg 54%
    09:00 +29°C° 0 mm 1 m/s 757 mmHg 46%
    10:00 +31°C° 0 mm 1 m/s 757 mmHg 39%
    11:00 +33°C° 0 mm 1 m/s 756 mmHg 33%
    12:00 +34°C° 0 mm 1 m/s 756 mmHg 27%
    13:00 +35°C° 0 mm 2 m/s 756 mmHg 27%
    14:00 +35°C° 0 mm 3 m/s 755 mmHg 27%
    15:00 +35°C° 0 mm 3 m/s 755 mmHg 26%
    16:00 +34°C° 0 mm 3 m/s 755 mmHg 28%
    17:00 +33°C° 0 mm 4 m/s 755 mmHg 30%
    18:00 +32°C° 0 mm 4 m/s 755 mmHg 32%
    19:00 +29°C° 0 mm 3 m/s 755 mmHg 36%
    20:00 +28°C° 0 mm 3 m/s 756 mmHg 40%
    21:00 +26°C° 0 mm 3 m/s 756 mmHg 44%
    22:00 +26°C° 0 mm 3 m/s 756 mmHg 46%
    23:00 +25°C° 0 mm 2 m/s 757 mmHg 47%

    10 Décembre, Mardi

    Heure Température Précipitation Vent Pression Humidité
    00:00 +24°C° 0 mm 2 m/s 757 mmHg 49%
    01:00 +24°C° 0 mm 1 m/s 756 mmHg 50%
    02:00 +23°C° 0 mm 1 m/s 756 mmHg 51%
    03:00 +20°C° 0 mm 0 m/s 756 mmHg 52%
    04:00 +22°C° 0 mm 1 m/s 756 mmHg 52%
    05:00 +22°C° 0 mm 1 m/s 756 mmHg 51%
    06:00 +22°C° 0 mm 1 m/s 756 mmHg 51%
    07:00 +25°C° 0 mm 1 m/s 756 mmHg 45%
    08:00 +28°C° 0 mm 1 m/s 756 mmHg 40%
    09:00 +30°C° 0 mm 1 m/s 756 mmHg 34%
    10:00 +33°C° 0 mm 1 m/s 756 mmHg 32%
    11:00 +33°C° 0 mm 0 m/s 755 mmHg 30%
    12:00 +35°C° 0 mm 0 m/s 755 mmHg 28%
    13:00 +37°C° 0 mm 1 m/s 755 mmHg 27%
    14:00 +37°C° 0 mm 1 m/s 754 mmHg 25%
    15:00 +38°C° 0 mm 2 m/s 753 mmHg 24%
    16:00 +37°C° 0 mm 2 m/s 753 mmHg 27%
    17:00 +36°C° 0 mm 3 m/s 753 mmHg 30%
    18:00 +35°C° 0 mm 3 m/s 753 mmHg 32%
    19:00 +33°C° 0 mm 3 m/s 753 mmHg 36%
    20:00 +30°C° 0 mm 3 m/s 753 mmHg 39%
    21:00 +28°C° 0 mm 2 m/s 754 mmHg 42%
    22:00 +27°C° 0 mm 2 m/s 754 mmHg 46%
    23:00 +27°C° 0 mm 1 m/s 754 mmHg 49%

    11 Décembre, Mercredi

    Heure Température Précipitation Vent Pression Humidité
    00:00 +26°C° 0 mm 1 m/s 754 mmHg 52%
    01:00 +25°C° 0 mm 1 m/s 753 mmHg 54%
    02:00 +25°C° 0 mm 1 m/s 753 mmHg 56%
    03:00 +24°C° 0 mm 1 m/s 753 mmHg 58%
    04:00 +25°C° 0 mm 1 m/s 753 mmHg 59%
    05:00 +25°C° 0 mm 1 m/s 753 mmHg 59%
    06:00 +25°C° 0 mm 1 m/s 753 mmHg 60%
    07:00 +27°C° 0 mm 1 m/s 753 mmHg 54%
    08:00 +30°C° 0 mm 1 m/s 753 mmHg 48%
    09:00 +32°C° 0 mm 2 m/s 753 mmHg 42%
    10:00 +34°C° 0 mm 1 m/s 753 mmHg 37%
    11:00 +37°C° 0 mm 1 m/s 752 mmHg 32%
    12:00 +40°C° 0 mm 1 m/s 752 mmHg 27%
    13:00 +40°C° 0 mm 1 m/s 751 mmHg 26%
    14:00 +40°C° 0 mm 2 m/s 750 mmHg 25%
    15:00 +40°C° 0 mm 2 m/s 750 mmHg 24%
    16:00 +38°C° 0 mm 3 m/s 749 mmHg 28%
    17:00 +37°C° 0 mm 4 m/s 749 mmHg 32%
    18:00 +35°C° 0 mm 4 m/s 749 mmHg 36%
    19:00 +34°C° 0 mm 4 m/s 749 mmHg 36%
    20:00 +33°C° 0 mm 4 m/s 749 mmHg 37%
    21:00 +30°C° 0 mm 4 m/s 750 mmHg 37%
    22:00 +30°C° 0 mm 3 m/s 750 mmHg 43%
    23:00 +29°C° 0 mm 3 m/s 749 mmHg 50%

    12 Décembre, Jeudi

    Heure Température Précipitation Vent Pression Humidité
    00:00 +28°C° 0 mm 2 m/s 749 mmHg 56%
    01:00 +27°C° 0 mm 2 m/s 749 mmHg 57%
    02:00 +27°C° 0 mm 2 m/s 748 mmHg 59%
    03:00 +27°C° 0 mm 2 m/s 748 mmHg 61%
    04:00 +26°C° 0 mm 2 m/s 748 mmHg 61%
    05:00 +26°C° 0 mm 2 m/s 748 mmHg 61%
    06:00 +26°C° 0 mm 2 m/s 748 mmHg 62%
    07:00 +26°C° 0.8 mm 3 m/s 749 mmHg 65%
    08:00 +26°C° 0.8 mm 3 m/s 749 mmHg 69%
    09:00 +26°C° 0.8 mm 3 m/s 750 mmHg 73%
    10:00 +27°C° 0.3 mm 3 m/s 750 mmHg 70%
    11:00 +28°C° 0.3 mm 3 m/s 750 mmHg 67%
    12:00 +29°C° 0.3 mm 3 m/s 750 mmHg 64%
    13:00 +30°C° 0 mm 4 m/s 749 mmHg 59%
    14:00 +32°C° 0 mm 4 m/s 748 mmHg 54%
    15:00 +34°C° 0 mm 5 m/s 747 mmHg 49%
    16:00 +34°C° 0 mm 5 m/s 747 mmHg 49%
    17:00 +34°C° 0 mm 5 m/s 747 mmHg 48%
    18:00 +34°C° 0 mm 5 m/s 746 mmHg 48%
    19:00 +32°C° 0.4 mm 4 m/s 747 mmHg 55%
    20:00 +28°C° 0.4 mm 4 m/s 748 mmHg 63%
    21:00 +26°C° 0.4 mm 3 m/s 749 mmHg 70%
    22:00 +26°C° 0 mm 3 m/s 749 mmHg 68%
    23:00 +25°C° 0 mm 2 m/s 750 mmHg 66%
    Voir plus